Location: Ferma
(41.9500°N, 44.5167°E)
Time: 19:07:05
(UTC+00:00)

FENGYUN 1C DEB - Pass Details

Date: 18 August 2022
Orbit: 606 x 930 km, 99.7° (Epoch: 01 October)

Event Time Altitude Azimuth Distance (km) Brightness Sun altitude
Exits shadow 19:02:59 22° 237° (WSW) 1,705 ? -28.3°
Maximum altitude 19:04:40 25° 266° (W) 1,584 ? -28.5°
Drops below altitude 10° 19:09:11 10° 321° (NW) 2,496 ? -28.9°
Sets 19:12:05 0° 334° (NNW) 3,485 ? -29.2°
